[Date Prev][Date Next][Thread Prev][Thread Next] - [Date Index][Thread Index][Author Index]

2 Line ISS Keps 6-25



ISS
1 25544U 98067A   03176.43895554  .00014494  00000-0  18257-3 0  1530
2 25544  51.6331 338.7414 0007015 296.6660 170.9164 15.59866066262290



----
Via the sarex mailing list at AMSAT.ORG courtesy of AMSAT-NA.
To unsubscribe, send "unsubscribe sarex" to Majordomo@amsat.org



AMSAT Top AMSAT Home